#timestamp,LO_Frequency,Hit 
1505869215.0,286047002.7,N
1505869215.9,286047002.7,N
1505869235.8,286047010.8,N
1505869255.6,286047009.4,N
1505869275.4,286047007.1,N
1505869295.3,286047005.6,N
1505869315.1,286047007.1,N
1505869316.0,286047007.1,N
1505869335.8,286047004.9,N
1505869355.7,286047005.9,N
1505869375.5,286047005.4,N
1505869395.3,286047008.9,N
1505869415.2,286047009.2,N
1505869435.9,286047009.9,N
1505869455.7,286047006.1,N
1505869475.6,286047009.0,N
1505869495.4,286047007.5,N
1505869515.2,286046999.9,N
1505869535.0,286047001.2,N
1505869536.0,286047001.2,N
1505869555.8,286046995.8,N
1505869575.6,286046996.4,N
1505869595.4,286046998.2,N
1505869615.3,286047002.5,N
1505869635.1,286047001.5,N
1505869655.8,286047005.8,N
1505869675.7,286047005.8,N
1505869695.5,286047004.4,N
1505869715.3,286047002.4,N
1505869735.2,286047002.2,N
1505869755.9,286047002.6,N
1505869775.7,286047002.6,N
1505869795.6,286047003.6,N
1505869815.4,286047005.1,N
1505869835.2,286047006.7,N
1505869855.1,286047003.2,N
1505869856.0,286047003.2,N
1505869875.8,286047002.6,N
1505869895.6,286046999.0,N
1505869915.5,286046999.1,N
1505869935.3,286047002.3,N
1505869955.1,286047004.2,N
1505869975.8,286047004.1,N
1505869995.7,286047002.5,N
1505870015.5,286046996.9,N
1505870035.3,286046995.3,N
1505870055.2,286046995.7,N
1505870075.9,286046995.6,N
1505870095.7,286046995.1,N
1505870115.6,286046995.3,N
1505870135.4,286046999.2,N
1505870155.2,286047000.3,N
1505870175.1,286046996.6,N
1505870176.0,286046996.6,N
1505870195.8,286046996.6,N
1505870215.6,286046997.6,N
1505870235.5,286046997.4,N
1505870255.3,286046997.7,N
1505870275.1,286046997.8,N
1505870295.8,286046999.1,N
1505870315.7,286047000.2,N
1505870335.5,286047000.3,N
1505870355.3,286046999.3,N
1505870375.2,286047001.0,N
1505870395.9,286046999.1,N
1505870415.7,286046997.0,N
1505870435.6,286046997.0,N
1505870455.4,286047000.8,N
1505870475.2,286047003.9,N
1505870495.1,286046999.8,N
1505870496.0,286046999.8,N
1505870515.8,286046998.2,N
1505870535.6,286046997.4,N
1505870555.5,286046997.7,N
1505870575.3,286046997.5,N
1505870595.1,286046995.0,N
1505870615.9,286046997.7,N
1505870635.7,286046996.8,N
1505870655.5,286046997.2,N
1505870675.3,286046997.3,N
1505870695.2,286046997.3,N
1505870715.0,286046997.3,N
1505870715.9,286046997.3,N
1505870735.7,286046995.1,N
1505870755.6,286046994.5,P
1505870775.4,286046994.2,P
1505870795.2,286046992.9,P
1505870815.1,286046992.5,P
1505870816.0,286046992.5,P
1505870835.8,286046999.3,N
1505870855.7,286046999.5,N
1505870875.5,286046997.7,N
1505870895.3,286046996.5,N
1505870915.1,286047000.1,N
1505870935.9,286047002.6,N
1505870955.7,286047001.6,N
1505870975.5,286047006.0,N
1505870995.4,286047005.0,N
1505871015.2,286047003.3,N
1505871035.0,286047001.4,N
1505871035.9,286047001.4,N
1505871055.8,286047002.1,N
1505871075.6,286047001.6,N
1505871095.4,286047004.2,N
1505871115.3,286047004.4,N
1505871135.1,286047001.6,N
1505871136.0,286047001.6,N
1505871155.8,286047006.2,N
1505871175.7,286047006.8,N
1505871195.5,286047008.6,N
1505871215.3,286047008.3,N
1505871235.2,286047005.6,N
1505871255.9,286047007.6,N
1505871275.7,286047009.0,N
1505871295.5,286047007.4,N
1505871315.4,286047003.5,N
1505871335.2,286047004.6,N
1505871355.0,286047006.1,N
1505871355.9,286047006.1,N
1505871375.8,286047006.1,N
1505871395.6,286047006.1,N
1505871415.4,286047008.5,N
1505871435.3,286047010.9,P
1505871455.1,286047010.6,P
1505871475.8,286047008.3,N
1505871495.7,286047008.7,P
1505871515.5,286047009.1,P
1505871535.3,286047007.7,P
1505871555.2,286047006.0,P
1505871575.0,286046996.1,P
1505871575.9,286046996.1,N
1505871595.8,286046994.4,N
1505871615.6,286046992.1,N
1505871635.4,286046993.2,N
1505871655.2,286046991.5,N
1505871675.1,286046985.6,N
1505871676.0,286046985.6,N
1505871695.8,286046983.4,N
1505871715.6,286046985.1,N
1505871735.5,286046987.1,N
1505871755.3,286046989.2,N
1505871775.1,286046989.4,N
1505871795.9,286046990.7,N
1505871815.7,286046989.6,N
1505871835.5,286046984.4,N
1505871855.4,286046985.3,N
1505871875.2,286046989.9,N
1505871895.0,286046989.8,N
1505871895.9,286046989.8,N
1505871915.8,286046987.6,N
1505871935.6,286046988.0,N
1505871955.4,286046986.8,N
1505871975.2,286046984.2,N
1505871995.1,286046983.5,N
1505871996.0,286046983.5,N
1505872015.8,286046981.4,P
1505872035.7,286046990.6,N
1505872055.5,286046992.1,N
1505872075.3,286046992.3,N
1505872095.1,286046991.1,N
1505872115.9,286046987.6,P
1505872135.7,286047002.8,N
1505872155.6,286047003.4,N
1505872175.4,286046999.9,N
1505872195.2,286047001.2,N
1505872215.0,286046998.2,N
1505872215.9,286046998.2,N
1505872235.8,286047000.5,N
1505872255.6,286047000.1,N
1505872275.4,286047003.3,N
1505872295.3,286047008.7,N
1505872315.1,286047006.7,N
1505872335.8,286047009.1,N
1505872355.7,286047006.6,N
1505872375.5,286047009.2,N
1505872395.3,286047007.1,N
1505872415.2,286047005.2,N
1505872435.9,286047005.5,N
1505872455.7,286047009.1,N
1505872475.5,286047009.1,N
1505872495.4,286047007.6,N
1505872515.2,286047004.8,N
1505872535.0,286047003.0,N
1505872535.9,286047003.0,N
1505872555.8,286047006.4,N
1505872575.6,286047008.0,N
1505872595.4,286047008.0,N
1505872615.3,286047011.7,N
1505872635.1,286047011.3,N
1505872636.0,286047011.3,N
1505872655.8,286047010.0,N
1505872675.7,286047008.2,N
1505872695.5,286047010.7,N
1505872715.3,286047010.7,N
1505872735.2,286047010.7,N
1505872755.9,286047006.6,N
1505872775.7,286047010.8,P
1505872795.6,286047001.3,N
